PST,Max TemperatureF,Mean TemperatureF,Min TemperatureF,Max Dew PointF,MeanDew PointF,Min DewpointF,Max Humidity, Mean Humidity, Min Humidity, Max Sea Level PressureIn, Mean Sea Level PressureIn, Min Sea Level PressureIn, Max VisibilityMiles, Mean VisibilityMiles, Min VisibilityMiles, Max Wind SpeedMPH, Mean Wind SpeedMPH, Max Gust SpeedMPH,PrecipitationIn, CloudCover, Events, WindDirDegrees
2012-12-1,66,63,60,61,59,57,96,88,70,30.17,30.13,30.07,10,7,0,8,2,,0.01,6,Fog,275
2012-12-2,66,62,57,58,57,55,94,85,66,30.15,30.11,30.07,10,9,4,8,1,,0.01,7,Rain,244
2012-12-3,66,63,60,61,58,57,93,84,73,30.18,30.15,30.11,10,9,2,8,2,,0.01,7,,248
2012-12-4,66,62,59,59,57,55,94,86,68,30.22,30.16,30.13,10,5,2,9,2,,0.00,5,,270
2012-12-5,62,60,57,58,55,54,90,84,75,30.13,30.07,30.02,10,5,2,7,2,,0.00,6,,245
2012-12-6,66,62,59,57,55,52,90,80,67,30.02,29.93,29.87,10,9,4,8,2,,0.00,6,,86
2012-12-7,62,58,53,56,54,52,100,90,72,29.97,29.93,29.90,7,2,0,8,2,,0.01,5,Fog,155
2012-12-8,60,56,51,54,53,51,100,88,77,29.99,29.94,29.90,5,3,0,7,1,,0.01,4,Fog,163
2012-12-9,61,56,50,53,51,47,96,87,64,30.11,30.02,29.97,10,4,0,7,1,,0.00,4,Fog,194
2012-12-10,69,58,48,56,45,36,89,66,30,30.12,30.08,30.04,10,7,3,8,2,,0.00,0,,264
2012-12-11,68,58,48,54,46,35,94,70,33,30.04,30.00,29.95,10,8,2,9,2,,0.00,2,,126
2012-12-12,64,58,51,52,50,47,89,73,56,29.97,29.91,29.86,10,8,5,12,6,,0.00,5,Rain,136
2012-12-13,59,56,53,54,51,40,94,85,57,29.83,29.79,29.73,10,6,1,9,5,,0.97,7,Rain,182
2012-12-14,59,54,50,47,42,36,86,66,45,29.99,29.91,29.77,10,9,2,13,7,24,0.15,6,Rain,228
2012-12-15,57,52,48,47,43,35,93,71,42,30.11,30.01,29.94,10,9,2,9,4,,0.10,4,Rain,30
2012-12-16,59,55,51,53,48,43,90,76,58,30.17,30.13,30.11,10,8,2,7,2,,0.00,8,Rain,91
2012-12-17,64,60,55,55,54,51,94,85,65,30.15,30.10,30.01,10,9,2,6,2,,0.05,7,Rain,213
2012-12-18,60,55,48,55,50,22,94,81,31,30.01,29.91,29.84,10,8,2,16,5,24,0.15,7,Rain,217
2012-12-19,57,48,39,32,27,21,68,44,24,30.24,30.16,30.02,10,10,10,7,2,,0.00,0,,24
2012-12-20,69,54,39,39,26,17,58,39,15,30.19,30.13,30.06,10,10,10,9,3,,0.00,0,,36
2012-12-21,60,50,41,46,37,26,86,61,35,30.12,30.07,30.03,10,10,8,6,1,,0.00,0,,275
2012-12-22,59,51,43,45,42,35,87,72,49,30.20,30.13,30.05,10,10,7,8,2,,0.00,1,,82
2012-12-23,62,56,50,52,48,42,89,78,65,30.22,30.16,30.11,10,9,5,8,2,,0.01,6,,83
2012-12-24,61,56,51,57,52,48,94,87,77,30.13,30.07,30.00,10,7,1,10,4,,0.14,6,Rain,169
2012-12-25,61,56,50,52,49,45,93,82,56,30.09,30.04,29.99,10,9,6,7,1,,0.01,1,,68
2012-12-26,60,56,51,54,47,43,92,76,52,30.00,29.97,29.94,10,9,2,10,4,16,0.03,6,Rain,194
2012-12-27,57,52,46,47,42,38,87,70,51,30.09,30.00,29.95,10,10,10,12,2,,0.00,1,,112
2012-12-28,63,54,45,42,37,29,77,57,28,30.15,30.10,30.06,10,10,10,9,3,,0.00,0,,80
2012-12-29,59,52,45,50,45,29,94,79,44,30.08,30.00,29.96,10,7,1,14,4,16,0.32,6,Rain,131
2012-12-30,55,50,44,46,43,38,93,80,61,30.06,29.97,29.91,10,8,2,9,4,,0.02,4,Rain,79
2012-12-31,59,49,39,39,36,27,83,62,29,30.24,30.18,30.08,10,10,10,12,3,,0.00,0,,72